Regional Weather Roundup
Issued by NWS

Home | Current Version | Previous Version | Text Only | Print | Product List | Glossary Off
Versions: 1 2 3 4 5 6 7 8 9 10 11 12 13 14 15 16 17 18 19 20 21 22 23 24 25 26 27 28 29 30 31 32 33 34 35 36 37 38 39 40 41 42 43 44 45 46 47 48 49 50

000
ASUS43 KIND 140059
RWRIN

WEATHER ROUNDUP FOR INDIANA
NATIONAL WEATHER SERVICE INDIANAPOLIS IN
800 PM EST SAT FEB 13 2016

NOTE: "FAIR" INDICATES FEW OR NO CLOUDS BELOW 12,000 FEET WITH NO
SIGNIFICANT WEATHER AND/OR OBSTRUCTIONS TO VISIBILITY.

* - STATION DOES NOT REPORT WEATHER SUCH AS PRECIPITATION OR FOG.

+ - STATION NOT QUALITY CONTROLLED BY THE NATIONAL WEATHER SERVICE.
    USE DATA WITH CAUTION...ESPECIALLY DEWPOINT AND RELATIVE
    HUMIDITY OBSERVATIONS.

INZ001>003-010>013-019-020-140200-
NORTHWEST INDIANA

CITY           SKY/WX    TMP DP  RH WIND       PRES   REMARKS
GARY /AIRPORT/ PTCLDY    14  -2  48 CALM      30.52S

$$

LMZ046-743>745-140200-
SOUTHERN LAKE MICHIGAN

STATION/POSITION TIME  TEMP    WIND        PRES    WAVE
                       AIR SEA DIR/SP/G            HT
                 (UTC) (F)     (DEG/KT/KT) (MB)    (FT)
BURNS HARBOR     0000   14      CALM  /  3 1033.5F
MICHIGAN CITY    0000   14     270/  9/ 10   N/A

$$

INZ004-005-014>016-021>024-140200-
NORTH CENTRAL INDIANA

CITY           SKY/WX    TMP DP  RH WIND       PRES   REMARKS
GOSHEN         LGT SNOW  12   6  77 W8        30.48F WCI   0
SOUTH BEND     CLOUDY    10   2  69 W5        30.50S WCI   2

$$

INZ006>009-017-018-025>027-140200-
NORTHEAST INDIANA

CITY           SKY/WX    TMP DP  RH WIND       PRES   REMARKS
ANGOLA *+      CLOUDY    12   3  67 NW9       30.45S WCI   0
FORT WAYNE     PTCLDY     8   1  73 W6        30.50F WCI  -2

$$

INZ028-029-035-036-043>045-051>053-140200-
WEST CENTRAL INDIANA

CITY           SKY/WX    TMP DP  RH WIND       PRES   REMARKS
CRAWFORDSVL +  PTCLDY    12   0  57 CALM      30.51S
GREENCASTLE +  PTCLDY    16  -6  38 CALM      30.51S
LAFAYETTE      MOCLDY    14  -1  51 CALM      30.52S
TERRE HAUTE    CLOUDY    17   2  51 CALM      30.53F

$$

INZ030>032-037>040-046>048-054>057-064-065-140200-
CENTRAL INDIANA

CITY           SKY/WX    TMP DP  RH WIND       PRES   REMARKS
GREENWOOD *+   CLOUDY    16   3  57 W5        30.50S WCI   9
INDIANAPOLIS   CLOUDY    15   0  51 W7        30.49S WCI   5
-EAGLE CREEK   PTCLDY    16  -1  47 N5        30.50S WCI   9
KOKOMO *+      CLOUDY    10  -2  56 NE5       30.51R WCI   2
MT COMFORT *+  PTCLDY    12   3  67 N3        30.50S
SHELBYVILLE    PTCLDY    16   1  51 N3        30.50S

$$

INZ033-034-041-042-049-050-058-059-140200-
EAST CENTRAL INDIANA

CITY           SKY/WX    TMP DP  RH WIND       PRES   REMARKS
MUNCIE         CLOUDY    11  -1  58 NW5       30.49S WCI   3

$$

INZ060-061-067>069-081>083-085>088-140200-
SOUTHWEST INDIANA

CITY           SKY/WX    TMP DP  RH WIND       PRES   REMARKS
EVANSVILLE     CLOUDY    24   2  38 NE6       30.54F WCI  17
HUNTINGBURG *+ CLOUDY    19   1  45 NW3       30.53F

$$

INZ062-063-066-070>080-084-089>092-140200-
SOUTH CENTRAL AND SOUTHEAST INDIANA

CITY           SKY/WX    TMP DP  RH WIND       PRES   REMARKS
BLOOMINGTON    CLOUDY    17   0  47 CALM      30.49F
MADISON *+     CLOUDY    18   3  53 CALM      30.52F
SEYMOUR +      CLOUDY    19   5  53 NE6       30.53S WCI  11

$$




USA.gov is the U.S. government's official web portal to all federal, state and local government web resources and services.